Flag for Germany Weather past 2 weeks in Herford, North Rhine-Westphalia, Germany

Now
63 °F

Partly sunny.


Feels Like: 63 °F
Forecast: 48 / 73 °F
Wind: 1 mph from Southeast

Location: Bueckeburg


UV Index: 3 (Moderate)

Visibility: N/A


Pressure: 30.09 "Hg

Humidity: 59%

Dew point: 48 °F

Location of HerfordLocation

Historic Weather in Herford

°F

Herford temperature yesterday

Maximum temperature yesterday: 64 °F (at 4:20 PM)
Minimum temperature yesterday: 39 °F (at 6:20 AM)
Average temperature yesterday: 53 °F

Past Weeks' High & Low Weather Summary

 TemperatureHumidityPressure
High68 °F (Apr 23, 2:20 PM)100% (Apr 11, 9:20 AM)30.48 "Hg (Apr 11, 9:20 AM)
Low30 °F (Apr 16, 4:20 AM)31% (Apr 17, 6:20 PM)29.68 "Hg (Apr 21, 2:20 PM)
Average50 °F74%30.03 "Hg
* Reported Apr 8 8:20 PM — Apr 23 8:20 PM, Herford, Weather by CustomWeather, © 2014

Note: Actual official high and low records may vary slightly from our data, if they occured in-between our weather recording intervals... More about our weather records

Advertising

Historic Weather Conditions — Data for Previous 24 hours

 ConditionsComfort  
Time TempWeatherWind HumidityBarometerVisibility
8:20 PM
Apr 23
63 °FPartly sunny.1 mph59%30.09 "HgN/A
7:20 PM68 °FPartly sunny.2 mph46%30.09 "HgN/A
6:20 PM68 °FPartly sunny.1 mph49%30.09 "HgN/A
5:20 PM68 °FPartly sunny.3 mph49%30.09 "HgN/A
4:20 PM66 °FPartly sunny.5 mph52%30.09 "HgN/A
3:20 PM66 °FScattered clouds.3 mph52%30.09 "HgN/A
2:20 PM68 °FPartly sunny.2 mph49%30.09 "HgN/A
1:20 PM66 °FPartly sunny.3 mph49%30.12 "HgN/A
12:20 PM64 °FScattered clouds.3 mph60%30.12 "HgN/A
11:20 AM63 °FScattered clouds.2 mph64%30.12 "Hg5 mi
10:20 AM61 °FScattered clouds.1 mph72%30.09 "Hg5 mi
9:20 AM57 °FScattered clouds.No wind77%30.09 "Hg3 mi
8:20 AM52 °FFog.2 mph94%30.07 "Hg2 mi
7:20 AM46 °FFog.2 mph100%30.07 "Hg2 mi
7:02 AM45 °FFog.No wind93%30.07 "Hg1 mi
6:20 AM45 °FFog.2 mph93%30.07 "Hg0 mi
5:20 AM48 °FPassing clouds.3 mph94%30.07 "HgN/A
4:20 AM46 °FPassing clouds.5 mph100%30.04 "HgN/A
3:20 AM48 °FPassing clouds.3 mph94%30.04 "HgN/A
2:20 AM50 °FPassing clouds.2 mph88%30.04 "HgN/A
1:20 AM48 °FPassing clouds.3 mph87%30.01 "HgN/A
12:20 AM52 °FPartly cloudy.3 mph88%30.01 "HgN/A
11:20 PM
Apr 22
54 °FPassing clouds.1 mph82%29.98 "HgN/A
10:20 PM55 °FPartly cloudy.3 mph77%29.98 "HgN/A
10:02 PM55 °FPartly cloudy.3 mph82%29.98 "HgN/A
9:20 PM57 °FBroken clouds.5 mph72%29.95 "HgN/A
Weather by CustomWeather, © 2014

See weather overview